Location: Long Geng
(2.6167°N, 114.1333°E)
Time: 14:40:24
(UTC+00:00)

BLOCK DM-SL R/B - Pass Details

Date: 21 September 2021
Orbit: 645 x 35621 km, 0.3° (Epoch: 19 October)

Event Time Altitude Azimuth Distance (km) Brightness Sun altitude
Exits shadow 21:15:03 21° 261° (W) 2,331 5.3 -15.3°
Maximum altitude 21:19:45 78° 176° (S) 1,944 5.5 -14.1°
Drops below altitude 10° 07:02:50 10° 92° (E) 12,873 9.4 48.3°
Sets 07:09:58 0° 91° (E) 12,041 9.2 46.5°
